| time (UTC) | temp C | wind direction | speed KPH | gust KPH | rain 1hr cm | rain 24hr cm | rain mn cm | humidity % | barometer mb |
| 20260510054954 | 10 | 209 | 4.8 | 9.7 | 0.00 | 0.00 | 0.00 | 87 | 1015.3 |
| 20260510054448 | 8 | 197 | 9.7 | 14.5 | 0.00 | 0.00 | 0.00 | 89 | 1015.3 |
| 20260510053944 | 10 | 115 | 3.2 | 14.5 | 0.00 | 0.00 | 0.00 | 86 | 1015.5 |
| 20260510053439 | 8 | 202 | 12.9 | 22.5 | 0.00 | 0.00 | 0.00 | 90 | 1015.4 |
| 20260510052936 | 7 | 112 | 3.2 | 11.3 | 0.00 | 0.00 | 0.00 | 96 | 1015.7 |
| 20260510052432 | 6 | 103 | 3.2 | 8.0 | 0.00 | 0.00 | 0.00 | 96 | 1015.8 |
| 20260510051928 | 6 | 87 | 1.6 | 4.8 | 0.00 | 0.00 | 0.00 | 96 | 1015.8 |
| 20260510051425 | 6 | 311 | 0.0 | 6.4 | 0.00 | 0.00 | 0.00 | 97 | 1016.0 |
| 20260510050921 | 6 | 65 | 3.2 | 4.8 | 0.00 | 0.00 | 0.00 | 98 | 1015.8 |
| 20260510050418 | 6 | 71 | 1.6 | 6.4 | 0.00 | 0.00 | 0.00 | 98 | 1016.0 |
| 20260510045915 | 5 | 309 | 6.4 | 8.0 | 0.00 | 0.00 | 0.00 | 98 | 1016.0 |
| 20260510045412 | 5 | 39 | 4.8 | 6.4 | 0.00 | 0.00 | 0.00 | 98 | 1016.1 |
| 20260510044909 | 5 | 21 | 4.8 | 8.0 | 0.00 | 0.00 | 0.00 | 98 | 1015.9 |
| 20260510044406 | 5 | 17 | 3.2 | 6.4 | 0.00 | 0.00 | 0.00 | 98 | 1016.1 |
| 20260510043902 | 5 | 33 | 3.2 | 6.4 | 0.00 | 0.00 | 0.00 | 98 | 1016.3 |
| 20260510043358 | 5 | 34 | 4.8 | 4.8 | 0.00 | 0.00 | 0.00 | 98 | 1016.1 |
| 20260510042857 | 5 | 348 | 1.6 | 4.8 | 0.00 | 0.00 | 0.00 | 97 | 1016.0 |
| 20260510042352 | 5 | 30 | 3.2 | 4.8 | 0.00 | 0.00 | 0.00 | 97 | 1016.0 |
| 20260510041848 | 5 | 81 | 1.6 | 4.8 | 0.00 | 0.00 | 0.00 | 97 | 1016.0 |
| 20260510041346 | 5 | 12 | 3.2 | 4.8 | 0.00 | 0.00 | 0.00 | 97 | 1016.1 |
| 20260510040843 | 5 | 35 | 3.2 | 6.4 | 0.00 | 0.00 | 0.00 | 97 | 1016.1 |
| 20260510040340 | 6 | 72 | 4.8 | 6.4 | 0.00 | 0.00 | 0.00 | 97 | 1015.9 |
| 20260510035835 | 6 | 15 | 1.6 | 4.8 | 0.00 | 0.00 | 0.00 | 97 | 1015.8 |
| 20260510035331 | 6 | 18 | 3.2 | 4.8 | 0.00 | 0.00 | 0.00 | 97 | 1015.9 |
| 20260510034827 | 5 | 23 | 4.8 | 4.8 | 0.00 | 0.00 | 0.00 | 97 | 1015.8 |
| 20260510034325 | 5 | 59 | 4.8 | 4.8 | 0.00 | 0.00 | 0.00 | 96 | 1016.0 |
| 20260510033821 | 6 | 21 | 3.2 | 4.8 | 0.00 | 0.00 | 0.00 | 96 | 1016.1 |
| 20260510033319 | 6 | 46 | 1.6 | 4.8 | 0.00 | 0.00 | 0.00 | 95 | 1015.9 |
| 20260510032815 | 5 | 43 | 4.8 | 6.4 | 0.00 | 0.00 | 0.00 | 95 | 1015.8 |
| 20260510032312 | 6 | 42 | 4.8 | 6.4 | 0.00 | 0.00 | 0.00 | 95 | 1015.8 |
| 20260510031807 | 6 | 354 | 3.2 | 4.8 | 0.00 | 0.00 | 0.00 | 96 | 1015.6 |
| 20260510031303 | 6 | 14 | 4.8 | 6.4 | 0.00 | 0.00 | 0.00 | 94 | 1015.7 |
| 20260510030803 | 6 | 42 | 4.8 | 4.8 | 0.00 | 0.00 | 0.00 | 94 | 1015.6 |
| 20260510030259 | 6 | 54 | 4.8 | 6.4 | 0.00 | 0.00 | 0.00 | 94 | 1015.6 |
| 20260510025757 | 6 | 5 | 4.8 | 6.4 | 0.00 | 0.00 | 0.00 | 92 | 1015.7 |
| 20260510025254 | 6 | 32 | 4.8 | 6.4 | 0.00 | 0.00 | 0.00 | 93 | 1015.5 |
| 20260510024751 | 6 | 38 | 4.8 | 6.4 | 0.00 | 0.00 | 0.00 | 93 | 1015.8 |
| 20260510024248 | 6 | 38 | 0.0 | 4.8 | 0.00 | 0.00 | 0.00 | 91 | 1015.7 |
| 20260510023744 | 6 | 7 | 4.8 | 4.8 | 0.00 | 0.00 | 0.00 | 93 | 1015.8 |
| 20260510023241 | 6 | 70 | 4.8 | 6.4 | 0.00 | 0.00 | 0.00 | 93 | 1015.8 |
| 20260510022737 | 6 | 352 | 3.2 | 4.8 | 0.00 | 0.00 | 0.00 | 93 | 1015.3 |
| 20260510022237 | 6 | 15 | 1.6 | 4.8 | 0.00 | 0.00 | 0.00 | 92 | 1015.7 |
| 20260510021732 | 6 | 11 | 3.2 | 4.8 | 0.00 | 0.00 | 0.00 | 92 | 1015.6 |
| 20260510021230 | 7 | 29 | 4.8 | 6.4 | 0.00 | 0.00 | 0.00 | 91 | 1015.5 |
| 20260510020730 | 7 | 9 | 3.2 | 4.8 | 0.00 | 0.00 | 0.00 | 91 | 1015.4 |
| 20260510020225 | 7 | 58 | 4.8 | 4.8 | 0.00 | 0.00 | 0.00 | 91 | 1015.5 |
| 20260510015721 | 7 | 29 | 4.8 | 6.4 | 0.00 | 0.00 | 0.00 | 90 | 1015.3 |
| 20260510015218 | 7 | 3 | 1.6 | 6.4 | 0.00 | 0.00 | 0.00 | 89 | 1014.8 |
| 20260510014713 | 7 | 43 | 4.8 | 4.8 | 0.00 | 0.00 | 0.00 | 90 | 1014.6 |
| 20260510014211 | 7 | 12 | 3.2 | 6.4 | 0.00 | 0.00 | 0.00 | 88 | 1014.9 |
| 20260510013712 | 7 | 52 | 3.2 | 4.8 | 0.00 | 0.00 | 0.00 | 88 | 1014.7 |
| 20260510013208 | 7 | 16 | 3.2 | 6.4 | 0.00 | 0.00 | 0.00 | 89 | 1014.5 |
| 20260510012707 | 7 | 22 | 4.8 | 6.4 | 0.00 | 0.00 | 0.00 | 90 | 1014.7 |
| 20260510012203 | 7 | 47 | 4.8 | 6.4 | 0.00 | 0.00 | 0.00 | 87 | 1014.7 |
| 20260510011658 | 7 | 0 | 3.2 | 4.8 | 0.00 | 0.00 | 0.00 | 87 | 1014.5 |
| 20260510011154 | 7 | 43 | 4.8 | 4.8 | 0.00 | 0.00 | 0.00 | 87 | 1014.3 |
| 20260510010650 | 8 | 23 | 3.2 | 4.8 | 0.00 | 0.00 | 0.00 | 85 | 1014.2 |
| 20260510010147 | 8 | 16 | 1.6 | 3.2 | 0.00 | 0.00 | 0.00 | 83 | 1014.4 |
| 20260510005643 | 8 | 35 | 4.8 | 4.8 | 0.00 | 0.00 | 0.00 | 85 | 1014.2 |
| 20260510005140 | 9 | 358 | 3.2 | 4.8 | 0.00 | 0.00 | 0.00 | 82 | 1014.3 |
| 20260510004639 | 9 | 92 | 1.6 | 3.2 | 0.00 | 0.00 | 0.00 | 80 | 1014.1 |
| 20260510004137 | 10 | 246 | 0.0 | 3.2 | 0.00 | 0.00 | 0.00 | 81 | 1014.0 |
| 20260510003633 | 10 | 131 | 0.0 | 3.2 | 0.00 | 0.00 | 0.00 | 78 | 1013.7 |
| 20260510003129 | 10 | 135 | 0.0 | 4.8 | 0.00 | 0.00 | 0.00 | 78 | 1014.0 |
| 20260510002629 | 11 | 69 | 0.0 | 4.8 | 0.00 | 0.00 | 0.00 | 74 | 1013.5 |
| 20260510002126 | 11 | 95 | 1.6 | 4.8 | 0.00 | 0.00 | 0.00 | 73 | 1013.7 |
| 20260510001623 | 11 | 94 | 0.0 | 4.8 | 0.00 | 0.00 | 0.00 | 73 | 1013.5 |
| 20260510001122 | 11 | 89 | 0.0 | 4.8 | 0.00 | 0.00 | 0.00 | 71 | 1013.6 |
| 20260510000622 | 12 | 98 | 0.0 | 3.2 | 0.00 | 0.00 | 0.00 | 70 | 1013.4 |
| 20260510000119 | 12 | 48 | 0.0 | 4.8 | 0.00 | 0.00 | 0.00 | 69 | 1013.4 |
| 20260509235616 | 12 | 28 | 0.0 | 4.8 | 0.00 | 0.00 | 0.00 | 65 | 1013.3 |
| 20260509235112 | 12 | 154 | 0.0 | 8.0 | 0.00 | 0.00 | 0.00 | 74 | 1013.2 |
| 20260509234608 | 13 | 164 | 0.0 | 3.2 | 0.00 | 0.00 | 0.00 | 70 | 1013.2 |
| 20260509234107 | 13 | 180 | 0.0 | 1.6 | 0.00 | 0.00 | 0.00 | 66 | 1013.2 |
| 20260509233604 | 14 | 60 | 3.2 | 4.8 | 0.00 | 0.00 | 0.00 | 64 | 1013.1 |
| 20260509233101 | 14 | 102 | 1.6 | 4.8 | 0.00 | 0.00 | 0.00 | 63 | 1013.3 |
| 20260509232557 | 15 | 167 | 1.6 | 4.8 | 0.00 | 0.00 | 0.00 | 63 | 1013.2 |
| 20260509232054 | 15 | 334 | 6.4 | 8.0 | 0.00 | 0.00 | 0.00 | 59 | 1013.2 |
| 20260509231550 | 15 | 176 | 1.6 | 3.2 | 0.00 | 0.00 | 0.00 | 59 | 1013.1 |
| 20260509231048 | 15 | 186 | 0.0 | 3.2 | 0.00 | 0.00 | 0.00 | 61 | 1013.2 |
| 20260509230545 | 15 | 119 | 0.0 | 1.6 | 0.00 | 0.00 | 0.00 | 61 | 1013.3 |
| 20260509230042 | 15 | 175 | 4.8 | 8.0 | 0.00 | 0.00 | 0.00 | 61 | 1013.3 |
| 20260509225537 | 15 | 191 | 4.8 | 11.3 | 0.00 | 0.00 | 0.00 | 61 | 1013.2 |
| 20260509225033 | 16 | 280 | 1.6 | 9.7 | 0.00 | 0.00 | 0.00 | 54 | 1013.2 |
| 20260509224529 | 16 | 21 | 1.6 | 14.5 | 0.00 | 0.00 | 0.00 | 53 | 1013.5 |
| 20260509224026 | 17 | 25 | 3.2 | 11.3 | 0.00 | 0.00 | 0.00 | 52 | 1013.5 |
| 20260509223523 | 16 | 273 | 1.6 | 12.9 | 0.00 | 0.00 | 0.00 | 53 | 1013.3 |
| 20260509223021 | 16 | 344 | 4.8 | 24.1 | 0.00 | 0.00 | 0.00 | 53 | 1013.1 |
| 20260509222516 | 16 | 7 | 3.2 | 16.1 | 0.00 | 0.00 | 0.00 | 53 | 1013.4 |
| 20260509222012 | 16 | 205 | 3.2 | 11.3 | 0.00 | 0.00 | 0.00 | 54 | 1013.4 |
| 20260509221508 | 16 | 172 | 3.2 | 8.0 | 0.00 | 0.00 | 0.00 | 53 | 1013.4 |
| 20260509221004 | 16 | 312 | 8.0 | 17.7 | 0.00 | 0.00 | 0.00 | 54 | 1013.5 |
| 20260509220500 | 17 | 0 | 3.2 | 4.8 | 0.00 | 0.00 | 0.00 | 52 | 1013.4 |
| 20260509215956 | 17 | 206 | 12.9 | 19.3 | 0.00 | 0.00 | 0.00 | 52 | 1013.3 |
| 20260509215452 | 16 | 14 | 3.2 | 6.4 | 0.00 | 0.00 | 0.00 | 53 | 1013.4 |
| 20260509214950 | 16 | 321 | 8.0 | 22.5 | 0.00 | 0.00 | 0.00 | 54 | 1013.4 |
| 20260509214447 | 16 | 201 | 3.2 | 9.7 | 0.00 | 0.00 | 0.00 | 51 | 1013.3 |
| 20260509213943 | 16 | 126 | 9.7 | 11.3 | 0.00 | 0.00 | 0.00 | 51 | 1013.3 |
| 20260509213439 | 16 | 196 | 3.2 | 11.3 | 0.00 | 0.00 | 0.00 | 51 | 1013.3 |
| 20260509212937 | 16 | 253 | 1.6 | 16.1 | 0.00 | 0.00 | 0.00 | 51 | 1013.1 |
| 20260509212434 | 16 | 289 | 12.9 | 19.3 | 0.00 | 0.00 | 0.00 | 50 | 1013.1 |
| 20260509211930 | 17 | 150 | 0.0 | 6.4 | 0.00 | 0.00 | 0.00 | 50 | 1013.0 |
| 20260509211426 | 17 | 76 | 3.2 | 14.5 | 0.00 | 0.00 | 0.00 | 50 | 1013.1 |
| 20260509210922 | 17 | 180 | 3.2 | 22.5 | 0.00 | 0.00 | 0.00 | 49 | 1013.0 |
| 20260509210420 | 17 | 204 | 3.2 | 14.5 | 0.00 | 0.00 | 0.00 | 47 | 1012.9 |
| 20260509205915 | 18 | 219 | 4.8 | 19.3 | 0.00 | 0.00 | 0.00 | 45 | 1012.6 |
| 20260509205415 | 17 | 310 | 4.8 | 12.9 | 0.00 | 0.00 | 0.00 | 45 | 1012.4 |
| 20260509204911 | 17 | 327 | 4.8 | 19.3 | 0.00 | 0.00 | 0.00 | 46 | 1012.6 |
| 20260509204408 | 19 | 135 | 8.0 | 11.3 | 0.00 | 0.00 | 0.00 | 42 | 1012.4 |
| 20260509203904 | 20 | 58 | 3.2 | 17.7 | 0.00 | 0.00 | 0.00 | 42 | 1012.1 |
| 20260509203400 | 20 | 210 | 8.0 | 25.7 | 0.00 | 0.00 | 0.00 | 42 | 1012.2 |
| 20260509202858 | 18 | 339 | 6.4 | 22.5 | 0.00 | 0.00 | 0.00 | 43 | 1012.0 |
| 20260509202353 | 17 | 160 | 3.2 | 22.5 | 0.00 | 0.00 | 0.00 | 45 | 1012.0 |
| 20260509201849 | 17 | 197 | 14.5 | 27.4 | 0.00 | 0.00 | 0.00 | 44 | 1012.3 |
| 20260509201344 | 18 | 187 | 3.2 | 6.4 | 0.00 | 0.00 | 0.00 | 43 | 1012.3 |
| 20260509200841 | 17 | 143 | 4.8 | 24.1 | 0.00 | 0.00 | 0.00 | 43 | 1012.2 |
| 20260509200336 | 17 | 306 | 0.0 | 16.1 | 0.00 | 0.00 | 0.00 | 43 | 1011.9 |
| 20260509195833 | 17 | 314 | 4.8 | 17.7 | 0.00 | 0.00 | 0.00 | 45 | 1012.1 |
| 20260509195333 | 17 | 15 | 6.4 | 24.1 | 0.00 | 0.00 | 0.00 | 40 | 1012.2 |
| 20260509194833 | 17 | 265 | 3.2 | 27.4 | 0.00 | 0.00 | 0.00 | 43 | 1012.3 |
| 20260509194329 | 17 | 50 | 3.2 | 38.6 | 0.00 | 0.00 | 0.00 | 46 | 1012.3 |
| 20260509193826 | 18 | 127 | 3.2 | 14.5 | 0.00 | 0.00 | 0.00 | 44 | 1012.3 |
| 20260509193321 | 17 | 206 | 20.9 | 20.9 | 0.00 | 0.00 | 0.00 | 48 | 1012.4 |
| 20260509192817 | 17 | 190 | 8.0 | 19.3 | 0.00 | 0.00 | 0.00 | 50 | 1012.3 |
| 20260509192313 | 17 | 195 | 12.9 | 19.3 | 0.00 | 0.00 | 0.00 | 51 | 1012.3 |
| 20260509191808 | 17 | 189 | 9.7 | 20.9 | 0.00 | 0.00 | 0.00 | 49 | 1012.0 |
| 20260509191305 | 18 | 199 | 12.9 | 30.6 | 0.00 | 0.00 | 0.00 | 48 | 1012.3 |
| 20260509190800 | 17 | 206 | 1.6 | 20.9 | 0.00 | 0.00 | 0.00 | 48 | 1012.3 |
| 20260509190258 | 17 | 158 | 17.7 | 25.7 | 0.00 | 0.00 | 0.00 | 50 | 1012.4 |
| 20260509185755 | 17 | 190 | 8.0 | 16.1 | 0.00 | 0.00 | 0.00 | 48 | 1012.4 |
| 20260509185251 | 17 | 194 | 6.4 | 27.4 | 0.00 | 0.00 | 0.00 | 46 | 1012.4 |
| 20260509184749 | 18 | 203 | 9.7 | 24.1 | 0.00 | 0.00 | 0.00 | 47 | 1012.3 |
| 20260509184246 | 17 | 170 | 6.4 | 19.3 | 0.00 | 0.00 | 0.00 | 54 | 1012.6 |
| 20260509183742 | 16 | 131 | 3.2 | 20.9 | 0.00 | 0.00 | 0.00 | 55 | 1012.5 |
| 20260509183238 | 17 | 154 | 6.4 | 14.5 | 0.00 | 0.00 | 0.00 | 49 | 1012.4 |
| 20260509182733 | 17 | 186 | 11.3 | 17.7 | 0.00 | 0.00 | 0.00 | 52 | 1012.6 |
| 20260509182231 | 16 | 206 | 4.8 | 14.5 | 0.00 | 0.00 | 0.00 | 56 | 1012.5 |
| 20260509181728 | 16 | 170 | 9.7 | 25.7 | 0.00 | 0.00 | 0.00 | 55 | 1012.5 |
| 20260509181226 | 17 | 200 | 11.3 | 22.5 | 0.00 | 0.00 | 0.00 | 53 | 1012.3 |
| 20260509180723 | 16 | 190 | 16.1 | 17.7 | 0.00 | 0.00 | 0.00 | 53 | 1012.7 |
| 20260509180219 | 17 | 196 | 6.4 | 14.5 | 0.00 | 0.00 | 0.00 | 53 | 1012.7 |
| 20260509175715 | 17 | 170 | 12.9 | 14.5 | 0.00 | 0.00 | 0.00 | 52 | 1012.5 |
| 20260509175212 | 16 | 203 | 8.0 | 16.1 | 0.00 | 0.00 | 0.00 | 55 | 1012.7 |
| 20260509174708 | 15 | 194 | 14.5 | 27.4 | 0.00 | 0.00 | 0.00 | 56 | 1012.7 |
| 20260509174203 | 16 | 182 | 4.8 | 20.9 | 0.00 | 0.00 | 0.00 | 60 | 1013.1 |
| 20260509173659 | 16 | 180 | 12.9 | 17.7 | 0.00 | 0.00 | 0.00 | 56 | 1013.1 |
| 20260509173155 | 15 | 203 | 11.3 | 11.3 | 0.00 | 0.00 | 0.00 | 56 | 1013.3 |
| 20260509172651 | 15 | 178 | 4.8 | 25.7 | 0.00 | 0.00 | 0.00 | 56 | 1013.3 |
| 20260509172148 | 16 | 194 | 4.8 | 14.5 | 0.00 | 0.00 | 0.00 | 58 | 1013.1 |
| 20260509171643 | 16 | 168 | 8.0 | 17.7 | 0.00 | 0.00 | 0.00 | 57 | 1013.2 |
| 20260509171140 | 16 | 203 | 1.6 | 11.3 | 0.00 | 0.00 | 0.00 | 58 | 1013.3 |
| 20260509170637 | 15 | 159 | 3.2 | 9.7 | 0.00 | 0.00 | 0.00 | 57 | 1013.3 |
| 20260509170133 | 14 | 201 | 0.0 | 9.7 | 0.00 | 0.00 | 0.00 | 60 | 1013.7 |
| 20260509165631 | 15 | 183 | 0.0 | 20.9 | 0.00 | 0.00 | 0.00 | 60 | 1013.5 |
| 20260509165127 | 14 | 246 | 0.0 | 16.1 | 0.00 | 0.00 | 0.00 | 61 | 1013.5 |
| 20260509164623 | 14 | 196 | 6.4 | 14.5 | 0.00 | 0.00 | 0.00 | 60 | 1013.5 |
| 20260509164119 | 14 | 159 | 3.2 | 19.3 | 0.00 | 0.00 | 0.00 | 61 | 1013.4 |
| 20260509163617 | 14 | 202 | 6.4 | 9.7 | 0.00 | 0.00 | 0.00 | 59 | 1013.5 |
| 20260509163112 | 15 | 180 | 4.8 | 9.7 | 0.00 | 0.00 | 0.00 | 59 | 1013.0 |
| 20260509162610 | 15 | 151 | 9.7 | 16.1 | 0.00 | 0.00 | 0.00 | 59 | 1013.3 |
| 20260509162106 | 15 | 160 | 6.4 | 9.7 | 0.00 | 0.00 | 0.00 | 60 | 1013.0 |
| 20260509161602 | 15 | 45 | 3.2 | 4.8 | 0.00 | 0.00 | 0.00 | 61 | 1013.1 |
| 20260509161102 | 14 | 197 | 6.4 | 8.0 | 0.00 | 0.00 | 0.00 | 60 | 1013.2 |
| 20260509160559 | 14 | 255 | 3.2 | 11.3 | 0.00 | 0.00 | 0.00 | 60 | 1013.5 |
| 20260509160054 | 14 | 94 | 3.2 | 8.0 | 0.00 | 0.00 | 0.00 | 60 | 1013.3 |
| 20260509155551 | 13 | 193 | 6.4 | 8.0 | 0.00 | 0.00 | 0.00 | 64 | 1013.1 |
| 20260509155047 | 13 | 179 | 4.8 | 16.1 | 0.00 | 0.00 | 0.00 | 62 | 1013.3 |
| 20260509154543 | 14 | 139 | 0.0 | 9.7 | 0.00 | 0.00 | 0.00 | 62 | 1013.2 |
| 20260509154041 | 14 | 199 | 3.2 | 8.0 | 0.00 | 0.00 | 0.00 | 61 | 1013.2 |
| 20260509153537 | 13 | 169 | 4.8 | 9.7 | 0.00 | 0.00 | 0.00 | 64 | 1013.2 |
| 20260509153034 | 13 | 180 | 6.4 | 14.5 | 0.00 | 0.00 | 0.00 | 64 | 1013.0 |
| 20260509152530 | 13 | 194 | 6.4 | 19.3 | 0.00 | 0.00 | 0.00 | 61 | 1013.2 |
| 20260509152027 | 13 | 161 | 3.2 | 8.0 | 0.00 | 0.00 | 0.00 | 62 | 1013.1 |
| 20260509151523 | 13 | 115 | 1.6 | 8.0 | 0.00 | 0.00 | 0.00 | 62 | 1013.1 |
| 20260509151021 | 13 | 191 | 6.4 | 12.9 | 0.00 | 0.00 | 0.00 | 62 | 1013.0 |
| 20260509150518 | 13 | 184 | 8.0 | 22.5 | 0.00 | 0.00 | 0.00 | 62 | 1013.3 |
| 20260509150017 | 14 | 190 | 14.5 | 19.3 | 0.00 | 0.00 | 0.00 | 62 | 1013.1 |
| 20260509145512 | 15 | 172 | 4.8 | 11.3 | 0.00 | 0.00 | 0.00 | 60 | 1013.1 |
| 20260509145007 | 15 | 190 | 8.0 | 12.9 | 0.00 | 0.00 | 0.00 | 59 | 1013.0 |
| 20260509144505 | 15 | 200 | 11.3 | 11.3 | 0.00 | 0.00 | 0.00 | 58 | 1012.7 |
| 20260509144002 | 14 | 163 | 4.8 | 8.0 | 0.00 | 0.00 | 0.00 | 59 | 1013.0 |
| 20260509143459 | 14 | 190 | 4.8 | 9.7 | 0.00 | 0.00 | 0.00 | 60 | 1013.1 |
| 20260509142955 | 15 | 117 | 4.8 | 12.9 | 0.00 | 0.00 | 0.00 | 57 | 1013.0 |
| 20260509142452 | 15 | 114 | 6.4 | 12.9 | 0.00 | 0.00 | 0.00 | 57 | 1012.7 |
| 20260509141947 | 16 | 193 | 3.2 | 11.3 | 0.00 | 0.00 | 0.00 | 55 | 1013.0 |
| 20260509141444 | 17 | 137 | 3.2 | 8.0 | 0.00 | 0.00 | 0.00 | 56 | 1013.0 |
| 20260509140941 | 17 | 46 | 0.0 | 8.0 | 0.00 | 0.00 | 0.00 | 54 | 1012.6 |
| 20260509140437 | 16 | 156 | 1.6 | 4.8 | 0.00 | 0.00 | 0.00 | 53 | 1012.9 |
| 20260509135936 | 15 | 198 | 0.0 | 12.9 | 0.00 | 0.00 | 0.00 | 59 | 1012.9 |
| 20260509135433 | 16 | 202 | 11.3 | 12.9 | 0.00 | 0.00 | 0.00 | 55 | 1013.0 |
| 20260509134930 | 13 | 175 | 6.4 | 12.9 | 0.00 | 0.00 | 0.00 | 62 | 1013.2 |
| 20260509134427 | 13 | 187 | 8.0 | 20.9 | 0.00 | 0.00 | 0.00 | 64 | 1013.4 |
| 20260509133925 | 13 | 183 | 6.4 | 20.9 | 0.00 | 0.00 | 0.00 | 66 | 1013.5 |
| 20260509133421 | 12 | 195 | 12.9 | 25.7 | 0.00 | 0.00 | 0.00 | 65 | 1013.4 |
| 20260509132920 | 13 | 189 | 9.7 | 20.9 | 0.00 | 0.00 | 0.00 | 62 | 1013.6 |
| 20260509132417 | 13 | 198 | 6.4 | 17.7 | 0.00 | 0.00 | 0.00 | 61 | 1013.8 |
| 20260509131914 | 12 | 173 | 6.4 | 14.5 | 0.00 | 0.00 | 0.00 | 64 | 1013.5 |
| 20260509131411 | 12 | 180 | 12.9 | 14.5 | 0.00 | 0.00 | 0.00 | 65 | 1013.7 |
| 20260509130908 | 11 | 187 | 14.5 | 32.2 | 0.00 | 0.00 | 0.00 | 68 | 1013.4 |
| 20260509130403 | 12 | 193 | 9.7 | 17.7 | 0.00 | 0.00 | 0.00 | 67 | 1013.7 |
| 20260509125900 | 12 | 197 | 12.9 | 14.5 | 0.00 | 0.00 | 0.00 | 67 | 1013.8 |
| 20260509125357 | 11 | 150 | 9.7 | 17.7 | 0.00 | 0.00 | 0.00 | 69 | 1013.6 |
| 20260509124853 | 11 | 172 | 8.0 | 12.9 | 0.00 | 0.00 | 0.00 | 72 | 1013.8 |
| 20260509124350 | 10 | 191 | 6.4 | 11.3 | 0.00 | 0.00 | 0.00 | 72 | 1013.8 |
| 20260509123848 | 9 | 186 | 8.0 | 9.7 | 0.00 | 0.00 | 0.00 | 75 | 1013.8 |
| 20260509123345 | 8 | 168 | 4.8 | 11.3 | 0.00 | 0.00 | 0.00 | 77 | 1013.8 |
| 20260509122841 | 8 | 176 | 4.8 | 12.9 | 0.00 | 0.00 | 0.00 | 76 | 1014.3 |
| 20260509122338 | 8 | 191 | 4.8 | 11.3 | 0.00 | 0.00 | 0.00 | 78 | 1014.1 |
| 20260509121835 | 8 | 165 | 6.4 | 9.7 | 0.00 | 0.00 | 0.00 | 75 | 1013.8 |
| 20260509121332 | 8 | 166 | 0.0 | 3.2 | 0.00 | 0.00 | 0.00 | 83 | 1013.8 |
| 20260509120830 | 7 | 137 | 1.6 | 3.2 | 0.00 | 0.00 | 0.00 | 83 | 1014.0 |
| 20260509120327 | 7 | 114 | 0.0 | 3.2 | 0.00 | 0.00 | 0.00 | 85 | 1013.8 |
| 20260509115825 | 7 | 114 | 1.6 | 3.2 | 0.00 | 0.00 | 0.00 | 88 | 1014.0 |
| 20260509115322 | 7 | 126 | 0.0 | 4.8 | 0.00 | 0.00 | 0.00 | 88 | 1013.8 |
| 20260509114820 | 6 | 127 | 1.6 | 3.2 | 0.00 | 0.00 | 0.00 | 89 | 1013.7 |
| 20260509114318 | 6 | 86 | 3.2 | 4.8 | 0.00 | 0.00 | 0.00 | 89 | 1013.7 |
| 20260509113818 | 6 | 60 | 3.2 | 4.8 | 0.00 | 0.00 | 0.00 | 90 | 1014.0 |
| 20260509113314 | 6 | 8 | 0.0 | 4.8 | 0.00 | 0.00 | 0.00 | 90 | 1013.8 |
| 20260509112811 | 5 | 52 | 3.2 | 4.8 | 0.00 | 0.00 | 0.00 | 91 | 1014.0 |
| 20260509112308 | 5 | 33 | 1.6 | 4.8 | 0.00 | 0.00 | 0.00 | 92 | 1014.0 |
| 20260509111805 | 5 | 61 | 1.6 | 4.8 | 0.00 | 0.00 | 0.00 | 91 | 1014.0 |
| 20260509111301 | 5 | 78 | 0.0 | 3.2 | 0.00 | 0.00 | 0.00 | 90 | 1014.2 |
| 20260509110759 | 5 | 64 | 3.2 | 4.8 | 0.00 | 0.00 | 0.00 | 91 | 1014.0 |
| 20260509110255 | 5 | 35 | 1.6 | 3.2 | 0.00 | 0.00 | 0.00 | 92 | 1014.0 |
| 20260509105753 | 5 | 81 | 3.2 | 4.8 | 0.00 | 0.00 | 0.00 | 91 | 1014.0 |
| 20260509105251 | 5 | 68 | 1.6 | 4.8 | 0.00 | 0.00 | 0.00 | 91 | 1014.2 |
| 20260509104747 | 5 | 40 | 3.2 | 3.2 | 0.00 | 0.00 | 0.00 | 89 | 1014.0 |
| 20260509104244 | 5 | 37 | 3.2 | 4.8 | 0.00 | 0.00 | 0.00 | 92 | 1013.6 |
| 20260509103743 | 4 | 55 | 4.8 | 6.4 | 0.00 | 0.00 | 0.00 | 91 | 1013.7 |
| 20260509103239 | 4 | 38 | 3.2 | 6.4 | 0.00 | 0.00 | 0.00 | 92 | 1013.7 |
| 20260509102738 | 4 | 36 | 3.2 | 6.4 | 0.00 | 0.00 | 0.00 | 93 | 1013.8 |
| 20260509102234 | 4 | 40 | 4.8 | 6.4 | 0.00 | 0.00 | 0.00 | 92 | 1013.7 |
| 20260509101731 | 4 | 21 | 4.8 | 6.4 | 0.00 | 0.00 | 0.00 | 92 | 1013.8 |
| 20260509101227 | 3 | 33 | 4.8 | 8.0 | 0.00 | 0.00 | 0.00 | 93 | 1013.7 |
| 20260509100725 | 3 | 41 | 4.8 | 8.0 | 0.00 | 0.00 | 0.00 | 94 | 1013.5 |
| 20260509100222 | 4 | 45 | 3.2 | 6.4 | 0.00 | 0.00 | 0.00 | 92 | 1013.7 |
| 20260509095718 | 3 | 32 | 6.4 | 8.0 | 0.00 | 0.00 | 0.00 | 93 | 1013.6 |
| 20260509095216 | 3 | 27 | 4.8 | 9.7 | 0.00 | 0.00 | 0.00 | 93 | 1013.5 |
| 20260509094713 | 3 | 10 | 4.8 | 8.0 | 0.00 | 0.00 | 0.00 | 93 | 1013.5 |
| 20260509094209 | 3 | 25 | 3.2 | 8.0 | 0.00 | 0.00 | 0.00 | 93 | 1013.7 |
| 20260509093708 | 3 | 40 | 4.8 | 6.4 | 0.00 | 0.00 | 0.00 | 93 | 1013.8 |
| 20260509093204 | 3 | 58 | 3.2 | 6.4 | 0.00 | 0.00 | 0.00 | 93 | 1013.8 |
| 20260509092702 | 3 | 33 | 4.8 | 6.4 | 0.00 | 0.00 | 0.00 | 93 | 1014.0 |
| 20260509092201 | 3 | 48 | 3.2 | 4.8 | 0.00 | 0.00 | 0.00 | 92 | 1014.1 |
| 20260509091659 | 4 | 34 | 4.8 | 8.0 | 0.00 | 0.00 | 0.00 | 92 | 1014.0 |
| 20260509091154 | 4 | 25 | 4.8 | 6.4 | 0.00 | 0.00 | 0.00 | 92 | 1014.0 |
| 20260509090652 | 4 | 39 | 4.8 | 8.0 | 0.00 | 0.00 | 0.00 | 92 | 1014.0 |
| 20260509090149 | 4 | 56 | 3.2 | 6.4 | 0.00 | 0.00 | 0.00 | 92 | 1014.3 |
| 20260509085647 | 4 | 32 | 3.2 | 6.4 | 0.00 | 0.00 | 0.00 | 92 | 1014.2 |
| 20260509085143 | 4 | 56 | 4.8 | 6.4 | 0.00 | 0.00 | 0.00 | 92 | 1014.3 |
| 20260509084640 | 5 | 23 | 4.8 | 8.0 | 0.00 | 0.00 | 0.00 | 90 | 1014.2 |
| 20260509084137 | 5 | 29 | 4.8 | 6.4 | 0.00 | 0.00 | 0.00 | 90 | 1014.2 |
| 20260509083634 | 5 | 34 | 3.2 | 4.8 | 0.00 | 0.00 | 0.00 | 92 | 1014.2 |
| 20260509083131 | 5 | 43 | 1.6 | 4.8 | 0.00 | 0.00 | 0.00 | 92 | 1014.2 |
| 20260509082628 | 5 | 25 | 3.2 | 6.4 | 0.00 | 0.00 | 0.00 | 90 | 1014.4 |
| 20260509082125 | 5 | 35 | 4.8 | 6.4 | 0.00 | 0.00 | 0.00 | 89 | 1014.4 |
| 20260509081622 | 5 | 37 | 4.8 | 6.4 | 0.00 | 0.00 | 0.00 | 89 | 1014.2 |
| 20260509081119 | 5 | 38 | 4.8 | 4.8 | 0.00 | 0.00 | 0.00 | 90 | 1014.4 |
| 20260509080617 | 5 | 94 | 0.0 | 3.2 | 0.00 | 0.00 | 0.00 | 88 | 1014.2 |
| 20260509080115 | 5 | 25 | 4.8 | 6.4 | 0.00 | 0.00 | 0.00 | 89 | 1014.2 |
| 20260509075612 | 5 | 50 | 3.2 | 4.8 | 0.00 | 0.00 | 0.00 | 89 | 1014.1 |
| 20260509075110 | 5 | 55 | 4.8 | 6.4 | 0.00 | 0.00 | 0.00 | 90 | 1014.4 |
| 20260509074607 | 5 | 37 | 3.2 | 4.8 | 0.00 | 0.00 | 0.00 | 89 | 1014.3 |
| 20260509074103 | 5 | 33 | 3.2 | 4.8 | 0.00 | 0.00 | 0.00 | 88 | 1014.1 |
| 20260509073600 | 5 | 15 | 3.2 | 4.8 | 0.00 | 0.00 | 0.00 | 89 | 1014.2 |
| 20260509073056 | 5 | 35 | 3.2 | 6.4 | 0.00 | 0.00 | 0.00 | 90 | 1014.5 |
| 20260509072553 | 5 | 38 | 4.8 | 6.4 | 0.00 | 0.00 | 0.00 | 87 | 1014.2 |
| 20260509072050 | 5 | 44 | 3.2 | 8.0 | 0.00 | 0.00 | 0.00 | 88 | 1014.2 |
| 20260509071547 | 5 | 47 | 4.8 | 8.0 | 0.00 | 0.00 | 0.00 | 88 | 1014.3 |
| 20260509071044 | 5 | 25 | 4.8 | 8.0 | 0.00 | 0.00 | 0.00 | 88 | 1014.4 |
| 20260509070541 | 5 | 41 | 6.4 | 6.4 | 0.00 | 0.00 | 0.00 | 89 | 1014.5 |
| 20260509070037 | 5 | 34 | 3.2 | 4.8 | 0.00 | 0.00 | 0.00 | 90 | 1014.4 |
| 20260509065532 | 5 | 73 | 1.6 | 3.2 | 0.00 | 0.00 | 0.00 | 88 | 1014.6 |
| 20260509065029 | 5 | 23 | 3.2 | 3.2 | 0.00 | 0.00 | 0.00 | 89 | 1014.4 |
| 20260509064527 | 5 | 61 | 3.2 | 4.8 | 0.00 | 0.00 | 0.00 | 88 | 1015.0 |
| 20260509064025 | 5 | 61 | 3.2 | 4.8 | 0.00 | 0.00 | 0.00 | 87 | 1014.5 |
| 20260509063520 | 4 | 9 | 1.6 | 3.2 | 0.00 | 0.00 | 0.00 | 88 | 1014.4 |
| 20260509063017 | 4 | 83 | 3.2 | 4.8 | 0.00 | 0.00 | 0.00 | 90 | 1014.6 |
| 20260509062514 | 4 | 17 | 3.2 | 4.8 | 0.00 | 0.00 | 0.00 | 90 | 1014.9 |
| 20260509062012 | 4 | 89 | 3.2 | 4.8 | 0.00 | 0.00 | 0.00 | 91 | 1014.7 |
| 20260509061509 | 3 | 83 | 1.6 | 3.2 | 0.00 | 0.00 | 0.00 | 89 | 1014.8 |
| 20260509061006 | 3 | 32 | 1.6 | 4.8 | 0.00 | 0.00 | 0.00 | 92 | 1015.0 |
| 20260509060503 | 3 | 12 | 3.2 | 4.8 | 0.00 | 0.00 | 0.00 | 92 | 1014.8 |
| 20260509055959 | 3 | 68 | 3.2 | 4.8 | 0.00 | 0.00 | 0.00 | 90 | 1015.2 |
| 20260509055454 | 3 | 19 | 3.2 | 4.8 | 0.00 | 0.00 | 0.00 | 90 | 1015.2 |